GW4066 Weather Reports


time (UTC)temp
C
wind
direction
speed
KPH
gust
KPH
rain 1hr
cm
rain 24hr
cm
rain mn
cm
humidity
%
barometer
mb
20260504020925 18 335 17.7 33.8 0.00 0.00 0.00 56 1006.8
20260504020004 18 339 14.5 37.0 0.00 0.00 0.00 57 1006.6
20260504015425 18 345 16.1 35.4 0.00 0.00 0.00 59 1006.7
20260504014504 18 345 16.1 30.6 0.00 0.00 0.00 58 1006.9
20260504013604 18 344 16.1 33.8 0.00 0.00 0.00 60 1007.2
20260504012726 17 343 16.1 32.2 0.00 0.00 0.00 61 1007.2
20260504011804 17 347 17.7 35.4 0.00 0.03 0.00 62 1007.2
20260504010904 17 349 17.7 32.2 0.00 0.03 0.00 62 1007.2
20260504010004 17 349 17.7 32.2 0.00 0.03 0.00 63 1007.3
20260504005404 17 342 19.3 32.2 0.00 0.03 0.00 63 1007.2
20260504004505 17 346 16.1 35.4 0.00 0.03 0.00 64 1007.3
20260504003604 16 342 16.1 35.4 0.00 0.03 0.00 64 1007.3
20260504002704 16 341 16.1 35.4 0.00 0.03 0.00 65 1007.4
20260504001804 16 336 16.1 38.6 0.00 0.05 0.00 66 1007.5
20260504000904 16 334 17.7 37.0 0.00 0.05 0.00 66 1007.4
20260504000005 16 345 17.7 33.8 0.00 0.05 0.00 67 1007.4
20260503235404 16 339 14.5 29.0 0.00 0.05 0.00 66 1007.6
20260503234504 16 332 14.5 35.4 0.00 0.05 0.00 67 1007.6
20260503233604 16 335 11.3 27.4 0.00 0.08 0.00 68 1007.7
20260503232725 16 326 14.5 29.0 0.00 0.13 0.00 69 1007.7
20260503231805 15 346 11.3 25.7 0.00 0.13 0.00 71 1007.9
20260503230926 15 1 11.3 25.7 0.00 0.13 0.00 72 1007.8
20260503230006 15 6 11.3 22.5 0.00 0.13 0.00 73 1008.0
20260503225404 15 4 11.3 25.7 0.00 0.13 0.00 73 1007.9
20260503224525 14 359 12.9 22.5 0.00 0.13 0.00 74 1007.9
20260503223604 14 358 9.7 19.3 0.00 0.13 0.00 74 1008.0
20260503222704 13 359 8.0 19.3 0.00 0.13 0.00 76 1008.0
20260503221804 13 359 8.0 19.3 0.00 0.13 0.00 77 1008.0
20260503220925 12 359 8.0 17.7 0.00 0.13 0.00 79 1008.1
20260503220005 12 3 8.0 17.7 0.00 0.13 0.00 80 1008.1
20260503215405 12 5 6.4 14.5 0.00 0.13 0.00 81 1007.9
20260503214504 12 10 6.4 14.5 0.00 0.13 0.00 82 1008.0
20260503213604 11 3 4.8 12.9 0.00 0.13 0.00 83 1008.0
20260503212704 11 9 4.8 12.9 0.00 0.13 0.00 83 1007.9
20260503211825 12 11 4.8 11.3 0.00 0.13 0.00 83 1007.8
20260503210905 12 8 6.4 12.9 0.00 0.13 0.00 83 1007.8
20260503210005 12 7 8.0 16.1 0.00 0.13 0.00 83 1007.8
20260503205426 12 8 8.0 16.1 0.00 0.13 0.00 83 1007.5
20260503204504 12 3 8.0 17.7 0.00 0.13 0.00 83 1007.5
20260503203604 12 4 6.4 17.7 0.00 0.13 0.00 83 1007.6
20260503202704 12 7 8.0 17.7 0.00 0.13 0.00 83 1007.4
20260503201804 12 11 8.0 19.3 0.00 0.13 0.00 82 1007.5
20260503200925 12 360 6.4 14.5 0.00 0.13 0.00 82 1007.5
20260503200004 12 4 6.4 12.9 0.00 0.13 0.00 82 1007.5
20260503195404 12 8 4.8 14.5 0.00 0.13 0.00 82 1007.5
20260503194504 12 3 8.0 17.7 0.00 0.13 0.00 82 1007.5
20260503193605 12 4 9.7 19.3 0.00 0.13 0.00 82 1007.5
20260503192704 12 3 8.0 16.1 0.00 0.13 0.00 82 1007.6
20260503191804 12 9 4.8 12.9 0.00 0.13 0.00 82 1007.6
20260503190904 12 20 4.8 12.9 0.00 0.13 0.00 82 1007.8
20260503190026 12 17 6.4 14.5 0.00 0.13 0.00 82 1007.8
20260503185425 12 14 8.0 16.1 0.00 0.13 0.00 82 1007.7
20260503184525 12 13 9.7 22.5 0.00 0.13 0.00 82 1007.8
20260503183625 12 16 9.7 17.7 0.00 0.13 0.00 83 1007.7
20260503182725 12 22 8.0 14.5 0.00 0.13 0.00 83 1007.9
20260503181825 12 22 8.0 16.1 0.00 0.13 0.00 84 1007.8
20260503180904 12 21 9.7 16.1 0.00 0.13 0.00 84 1007.9
20260503180005 12 19 11.3 22.5 0.00 0.13 0.00 84 1008.0
20260503175404 12 17 11.3 22.5 0.00 0.13 0.00 84 1008.0
20260503174504 12 16 9.7 19.3 0.00 0.13 0.00 85 1008.1
20260503173604 12 16 8.0 19.3 0.00 0.13 0.00 85 1008.2
20260503172705 12 19 8.0 19.3 0.00 0.13 0.00 85 1008.3
20260503171804 12 12 8.0 14.5 0.00 0.13 0.00 85 1008.5
20260503170926 12 16 8.0 16.1 0.00 0.13 0.00 85 1008.6
20260503150904 12 13 4.8 14.5 0.00 0.13 0.00 83 1008.9
20260503130904 13 17 3.2 8.0 0.00 0.13 0.13 81 1009.3
20260503080904 16 2 3.2 8.0 0.00 0.13 0.13 67 1008.2
20260503072705 17 342 3.2 9.7 0.00 0.13 0.13 62 1008.1
20260503071825 17 328 3.2 12.9 0.00 0.13 0.13 62 1008.0
20260503070905 18 317 4.8 14.5 0.00 0.13 0.13 61 1007.8
20260503054505 21 293 8.0 24.1 0.00 0.13 0.13 49 1007.7
20260503053604 21 312 6.4 24.1 0.00 0.13 0.13 46 1007.6
20260503052705 21 305 6.4 19.3 0.00 0.13 0.13 48 1007.4
20260503051825 20 310 6.4 17.7 0.00 0.13 0.13 51 1007.5
20260503050904 19 310 4.8 12.9 0.00 0.13 0.13 62 1007.4
20260503050005 18 323 4.8 16.1 0.00 0.13 0.13 66 1007.4
20260503045405 18 321 3.2 12.9 0.00 0.13 0.13 69 1007.3
20260503044526 18 338 4.8 16.1 0.00 0.13 0.13 71 1007.4
20260503043604 18 338 6.4 16.1 0.00 0.13 0.13 71 1007.4
20260503042704 18 326 8.0 17.7 0.00 0.13 0.13 71 1007.3
20260503041804 18 319 6.4 20.9 0.00 0.13 0.13 72 1007.1
20260503040904 18 316 3.2 9.7 0.00 0.13 0.13 74 1007.2
20260503040004 18 308 4.8 12.9 0.00 0.13 0.13 74 1007.3
20260503035404 18 298 4.8 14.5 0.00 0.13 0.13 75 1007.3
20260503034505 18 293 4.8 14.5 0.00 0.13 0.13 76 1007.5
20260503033604 18 300 3.2 12.9 0.00 0.13 0.13 76 1007.5
20260503032704 18 294 6.4 16.1 0.00 0.13 0.13 75 1007.5
20260503031825 18 289 4.8 14.5 0.00 0.13 0.13 76 1007.3
20260503030925 18 288 3.2 12.9 0.00 0.13 0.13 78 1007.4
20260503030004 18 287 4.8 16.1 0.00 0.13 0.13 78 1007.5
20260503025404 18 292 4.8 12.9 0.00 0.13 0.13 78 1007.5
20260503024504 18 300 6.4 20.9 0.00 0.13 0.13 77 1007.7
20260503023605 18 310 9.7 22.5 0.00 0.13 0.13 76 1007.6
20260503022704 19 348 12.9 30.6 0.00 0.13 0.13 81 1007.5
20260503021805 19 351 9.7 19.3 0.03 0.13 0.13 83 1007.2